This is the latest recevied weather packets stored in our database for station/object K3MV-13. If no packets are shown the sender has not sent any weather packets the latest 1 day(s).
| Time | Temp. | Humidity | Pressure | Rain* | Wind** | Luminosity | Snow |
|---|---|---|---|---|---|---|---|
| 1778042849 | 16.11° C | 59% | 1009.7 hPa | 0 mm | 1.34 m/s, 184° | 0 W/m² | - |
| 1778042546 | 16.67° C | 62% | 1009.7 hPa | 0 mm | 0.89 m/s, 173° | 0 W/m² | - |
| 1778042244 | 16.67° C | 59% | 1010 hPa | 0 mm | 0.45 m/s, 181° | 0 W/m² | - |
| 1778041941 | 17.22° C | 57% | 1009.7 hPa | 0 mm | 0.89 m/s, 159° | 0 W/m² | - |
| 1778041640 | 17.78° C | 52% | 1010.1 hPa | 0 mm | 0.89 m/s, 178° | 0 W/m² | - |
| 1778041338 | 17.78° C | 51% | 1009.8 hPa | 0 mm | 1.34 m/s, 196° | 0 W/m² | - |
| 1778041036 | 17.22° C | 52% | 1010.1 hPa | 0 mm | 1.34 m/s, 200° | 0 W/m² | - |
| 1778040733 | 17.78° C | 53% | 1009.8 hPa | 0 mm | 0.45 m/s, 177° | 0 W/m² | - |
| 1778040430 | 17.78° C | 53% | 1010 hPa | 0 mm | 0.89 m/s, 176° | 0 W/m² | - |
| 1778040127 | 17.78° C | 53% | 1009.7 hPa | 0 mm | 0.45 m/s, 198° | 0 W/m² | - |
| 1778039824 | 17.78° C | 52% | 1010 hPa | 0 mm | 0.45 m/s, 209° | 0 W/m² | - |
| 1778039521 | 17.78° C | 52% | 1009.9 hPa | 0 mm | 0.89 m/s, 193° | 0 W/m² | - |
| 1778039217 | 17.78° C | 51% | 1009.7 hPa | 0 mm | 0 m/s | 0 W/m² | - |
| 1778038915 | 17.78° C | 51% | 1009.6 hPa | 0 mm | 0.45 m/s, 194° | 0 W/m² | - |
| 1778038612 | 17.78° C | 50% | 1009.8 hPa | 0 mm | 0.45 m/s, 193° | 0 W/m² | - |
| 1778038309 | 18.33° C | 51% | 1009.7 hPa | 0 mm | 0 m/s | 0 W/m² | - |
| 1778038006 | 18.33° C | 50% | 1009.9 hPa | 0 mm | 0.89 m/s, 209° | 0 W/m² | - |
| 1778037703 | 18.33° C | 50% | 1009.9 hPa | 0 mm | 0.89 m/s, 210° | 0 W/m² | - |
| 1778037399 | 17.78° C | 52% | 1010 hPa | 0 mm | 0.45 m/s, 207° | 0 W/m² | - |
| 1778037096 | 17.78° C | 51% | 1009.9 hPa | 0 mm | 1.34 m/s, 189° | 0 W/m² | - |
| 1778036796 | 17.78° C | 52% | 1009.9 hPa | 0 mm | 0.89 m/s, 188° | 0 W/m² | - |
| 1778036492 | 17.78° C | 52% | 1010.2 hPa | 0 mm | 0.89 m/s, 178° | 0 W/m² | - |
| 1778036189 | 17.78° C | 52% | 1010 hPa | 0 mm | 0 m/s | 0 W/m² | - |
| 1778035885 | 17.78° C | 52% | 1010.2 hPa | 0 mm | 0.89 m/s, 193° | 0 W/m² | - |
| 1778035583 | 17.78° C | 51% | 1010.2 hPa | 0 mm | 0.45 m/s, 187° | 0 W/m² | - |
* Rain latest hour (hover to see other rain measurements)
** Current wind speed in m/s (hover to see current wind gust speed)